Location: Colle Santa Colomba
(42.0333°N, 12.5667°E)
Time: 02:20:48
(UTC+00:00)

EXPRESS MD2 - Pass Details

Date: 25 October 2021
Orbit: 262 x 3912 km, 49.9° (Epoch: 04 December)

Event Time Altitude Azimuth Distance (km) Brightness Sun altitude
Rises 17:09:44 0° 214° (SSW) 1,996 6.8 -11.2°
Reaches altitude 10° 17:11:52 10° 197° (SSW) 1,068 5.1 -11.6°
Maximum altitude 17:13:39 22° 140° (SE) 635 3.3 -11.9°
Enters shadow 17:14:01 21° 123° (ESE) 661 3.3 -12.0°
